Emporia, VA

11:02 PM EST on December 11, 2019 (GMT -0500)
Emporia-Greensville Regional

Weather History for KEMV - October, 2019

Change the Weather History Date:

Wednesday, October 2, 2019

  Actual Average Record
Temperature  
Mean Temperature 80 °F -  
Max Temperature 94 °F 74 °F 94 °F (2019)
Min Temperature 65 °F 50 °F 39 °F (1987)
Cooling Degree Days 14    
Growing Degree Days 30 (Base 50)    
Moisture  
Dew Point 68 °F    
Average Humidity 75    
Maximum Humidity 98    
Minimum Humidity 39    
Precipitation  
Precipitation 0.00 in - - ()
Sea Level Pressure  
Sea Level Pressure 29.97 in    
Wind  
Wind Speed 1 mph (SSW)    
Max Wind Speed 8 mph    
Max Gust Speed -    
Visibility 9 miles    
Events      
Averages and records for this station are not official NWS values.
T = Trace of Precipitation, MM = Missing Value Source: NWS Daily Summary

Daily Weather History Graph

Daily Weather History Graph

Search for Another Location

Airport or City:

Astronomy

Oct. 02, 2019 Rise Set
Actual Time 7:05 AM EDT 6:52 PM EDT
Civil Twilight 6:40 AM EDT 7:17 PM EDT
Nautical Twilight 6:10 AM EDT 7:47 PM EDT
Astronomical Twilight 5:39 AM EDT 8:18 PM EDT
Moon 11:22 AM EDT (10/2) 9:51 PM EDT (10/2)
Length of Visible Light 12h 37m
Length of Day
11h 46m
Waxing Crescent, 20% of the Moon is Illuminated
Oct 2
Waxing Crescent
Oct 5
First Quarter
Oct 13
Full
Oct 21
Last Quarter
Oct 27
New

Hourly Weather History & Observations

Time (EDT) Temp. Heat Index Dew Point Humidity Pressure Visibility Wind Dir Wind Speed Gust Speed Precip Events Conditions
12:15 AM 68.0 °F - 65.7 °F 92% 30.04 in 10.0 mi Calm Calm - N/A   Clear
12:35 AM 68.0 °F - 65.5 °F 92% 30.04 in 10.0 mi Calm Calm - N/A   Clear
12:55 AM 68.0 °F - 65.7 °F 92% 30.03 in - Calm Calm - N/A   Unknown
1:15 AM 67.3 °F - 65.3 °F 93% 30.03 in 10.0 mi Calm Calm - N/A   Clear
1:35 AM 68.0 °F - 65.7 °F 92% 30.03 in 10.0 mi Calm Calm - N/A   Clear
1:55 AM 67.5 °F - 65.5 °F 93% 30.03 in 10.0 mi Calm Calm - N/A   Clear
2:15 AM 66.4 °F - 64.9 °F 95% 30.02 in 10.0 mi ESE 3.5 mph - N/A   Clear
2:35 AM 67.1 °F - 65.5 °F 95% 30.02 in 10.0 mi Calm Calm - N/A   Clear
2:55 AM 67.1 °F - 65.3 °F 94% 30.01 in 10.0 mi Calm Calm - N/A   Clear
3:15 AM 66.7 °F - 65.3 °F 95% 30.00 in 10.0 mi ESE 3.5 mph - N/A   Clear
3:35 AM 66.9 °F - 65.5 °F 95% 30.01 in - Calm Calm - N/A   Unknown
3:55 AM 66.7 °F - 65.5 °F 96% 30.00 in 10.0 mi Calm Calm - N/A   Clear
4:15 AM 67.3 °F - 65.5 °F 94% 30.00 in 10.0 mi Calm Calm - N/A   Clear
4:35 AM 67.1 °F - 65.5 °F 95% 30.00 in 10.0 mi Calm Calm - N/A   Clear
4:55 AM 66.7 °F - 65.3 °F 95% 30.00 in 7.0 mi Calm Calm - N/A   Clear
5:15 AM 66.4 °F - 65.1 °F 96% 30.00 in 7.0 mi Calm Calm - N/A   Clear
5:35 AM 66.0 °F - 64.9 °F 96% 30.01 in 7.0 mi Calm Calm - N/A   Clear
5:55 AM 65.8 °F - 64.9 °F 97% 30.01 in 7.0 mi Calm Calm - N/A   Clear
6:15 AM 66.0 °F - 65.3 °F 98% 30.01 in 7.0 mi Calm Calm - N/A   Clear
6:35 AM 66.0 °F - 65.1 °F 97% 30.02 in 7.0 mi Calm Calm - N/A   Clear
6:55 AM 66.2 °F - 65.3 °F 97% 30.02 in 7.0 mi Calm Calm - N/A   Clear
7:15 AM 66.0 °F - 65.3 °F 98% 30.02 in 7.0 mi Calm Calm - N/A   Clear
7:35 AM 66.6 °F - 65.3 °F 96% 30.02 in 7.0 mi Calm Calm - N/A   Clear
7:55 AM 67.1 °F - 65.8 °F 96% 30.02 in 7.0 mi Calm Calm - N/A   Clear
8:15 AM 67.8 °F - 66.2 °F 95% 30.02 in 7.0 mi Calm Calm - N/A   Clear
8:35 AM 68.9 °F - 66.7 °F 93% 30.02 in 7.0 mi Calm Calm - N/A   Clear
8:55 AM 70.7 °F - 67.1 °F 88% 30.02 in 10.0 mi Calm Calm - N/A   Clear
9:15 AM 73.0 °F - 67.8 °F 84% 30.02 in 10.0 mi South 3.5 mph - N/A   Clear
9:35 AM 75.6 °F - 68.2 °F 78% 30.02 in - South 4.6 mph - N/A   Mostly Cloudy
9:55 AM 76.6 °F - 68.5 °F 76% 30.01 in 10.0 mi SSW 3.5 mph - N/A   Overcast
10:15 AM 79.5 °F - 69.6 °F 72% 30.01 in - South 4.6 mph - N/A   Scattered Clouds
10:35 AM 80.1 °F 83.2 °F 69.8 °F 71% 30.00 in 10.0 mi South 5.8 mph - N/A   Scattered Clouds
10:55 AM 82.0 °F 86.1 °F 70.5 °F 68% 30.00 in 10.0 mi South 3.5 mph - N/A   Scattered Clouds
11:15 AM 83.3 °F 87.9 °F 70.9 °F 66% 29.99 in 10.0 mi South 4.6 mph - N/A   Scattered Clouds
11:35 AM 85.5 °F 91.1 °F 71.4 °F 63% 29.99 in 10.0 mi SSE 4.6 mph - N/A   Clear
11:55 AM 86.4 °F 92.6 °F 71.8 °F 62% 29.98 in 10.0 mi South 4.6 mph - N/A   Clear
12:15 PM 87.8 °F 93.8 °F 71.6 °F 58% 29.98 in 10.0 mi WSW 5.8 mph - N/A   Clear
12:35 PM 88.2 °F 94.1 °F 71.1 °F 57% 29.97 in 10.0 mi SSW 4.6 mph - N/A   Clear
12:55 PM 89.8 °F 96.5 °F 71.6 °F 55% 29.97 in 10.0 mi East 3.5 mph - N/A   Clear
1:15 PM 91.2 °F 97.5 °F 70.9 °F 51% 29.96 in 10.0 mi Calm Calm - N/A   Clear
1:35 PM 91.9 °F 98.4 °F 70.7 °F 50% 29.95 in 10.0 mi Calm Calm - N/A   Clear
1:55 PM 93.2 °F 98.8 °F 69.6 °F 46% 29.94 in 10.0 mi WSW 8.1 mph - N/A   Clear
2:15 PM 93.4 °F 98.1 °F 68.2 °F 44% 29.94 in 10.0 mi WNW 8.1 mph - N/A   Clear
2:35 PM 94.3 °F 98.2 °F 67.1 °F 41% 29.93 in 10.0 mi WNW 4.6 mph - N/A   Clear
2:55 PM 93.2 °F 95.8 °F 65.8 °F 40% 29.92 in 10.0 mi West 5.8 mph - N/A   Clear
3:15 PM 93.9 °F 97.0 °F 66.2 °F 40% 29.91 in 10.0 mi WSW 6.9 mph - N/A   Clear
3:35 PM 93.2 °F 96.2 °F 66.6 °F 41% 29.91 in 10.0 mi Calm Calm - N/A   Clear
3:55 PM 94.6 °F 97.8 °F 65.8 °F 39% 29.90 in 10.0 mi SSW 5.8 mph - N/A   Clear
4:15 PM 94.6 °F 97.8 °F 66.0 °F 39% 29.89 in - SW 6.9 mph - N/A   Scattered Clouds
4:35 PM 94.5 °F 97.5 °F 65.7 °F 39% 29.89 in 10.0 mi WSW 3.5 mph - N/A   Clear
4:55 PM 93.7 °F 96.2 °F 65.3 °F 39% 29.89 in 10.0 mi WSW 4.6 mph - N/A   Clear
5:35 PM 92.5 °F 95.4 °F 66.6 °F 42% 29.89 in 10.0 mi SW 3.5 mph - N/A   Clear
5:55 PM 90.9 °F 94.8 °F 68.0 °F 47% 29.89 in 10.0 mi Calm Calm - N/A   Clear
6:15 PM 89.2 °F 93.2 °F 68.4 °F 50% 29.89 in 10.0 mi South 3.5 mph - N/A   Clear
6:35 PM 87.4 °F 91.9 °F 69.3 °F 55% 29.89 in 10.0 mi Calm Calm - N/A   Clear
6:55 PM 83.1 °F 87.3 °F 70.3 °F 65% 29.89 in 10.0 mi Calm Calm - N/A   Clear
7:15 PM 79.3 °F - 70.0 °F 73% 29.90 in - Calm Calm - N/A   Clear
7:35 PM 77.4 °F - 69.8 °F 77% 29.90 in 10.0 mi Calm Calm - N/A   Clear
7:55 PM 76.5 °F - 69.4 °F 79% 29.91 in 10.0 mi Calm Calm - N/A   Clear
8:15 PM 82.9 °F 86.0 °F 68.4 °F 61% 29.92 in 10.0 mi Calm Calm - N/A   Clear
8:35 PM 83.5 °F 86.7 °F 68.2 °F 60% 29.92 in 10.0 mi Calm Calm - N/A   Clear
9:15 PM 77.7 °F - 68.7 °F 74% 29.93 in 10.0 mi Calm Calm - N/A   Clear
9:35 PM 76.3 °F - 68.9 °F 78% 29.93 in 10.0 mi Calm Calm - N/A   Clear
9:55 PM 76.8 °F - 69.8 °F 79% 29.93 in 10.0 mi Calm Calm - N/A   Clear
10:15 PM 74.7 °F - 69.8 °F 85% 29.94 in 10.0 mi Calm Calm - N/A   Clear
10:35 PM 74.3 °F - 70.0 °F 86% 29.94 in 10.0 mi Calm Calm - N/A   Clear
10:55 PM 73.0 °F - 69.8 °F 90% 29.94 in 10.0 mi Calm Calm - N/A   Clear
11:15 PM 72.7 °F - 69.8 °F 91% 29.94 in 10.0 mi Calm Calm - N/A   Clear
11:35 PM 72.0 °F - 69.1 °F 91% 29.94 in 10.0 mi Calm Calm - N/A   Clear
11:55 PM 71.4 °F - 69.6 °F 94% 29.94 in 7.0 mi Calm Calm - N/A   Clear